PROBA-1 1 26958U 01049B 26257.33658069 .00000401 00000+0 29990-4 0 9993 2 26958 97.9611 269.0151 0054333 179.6338 180.4938 15.07796798357056 CUTE-1 (CO-55) 1 27844U 03031E 26257.25056750 .00000190 00000+0 10120-3 0 9990 2 27844 98.6770 264.7043 0008431 289.6947 70.3322 14.24380949204356 CUBESAT XI-IV (CO-57) 1 27848U 03031J 26257.00279928 .00000154 00000+0 86559-4 0 9991 2 27848 98.6802 264.1006 0008556 311.7617 48.2830 14.23659665204012 APRIZESAT 4 1 35684U 09041D 26256.72445480 .00000511 00000+0 67312-4 0 9994 2 35684 98.1347 333.7816 0043917 35.9101 324.5051 14.83988462924495 APRIZESAT 3 1 35686U 09041F 26256.43493409 .00001140 00000+0 10250-3 0 9995 2 35686 98.2179 53.9666 0062173 135.0719 225.5557 14.96448205929572 PROBA-2 1 36037U 09059B 26256.95998807 .00000108 00000+0 35754-4 0 9994 2 36037 98.2483 79.1063 0013497 12.0878 348.0641 14.54893595894438 APRIZESAT 5 1 37792U 11044E 26256.57335356 .00000763 00000+0 10304-3 0 9992 2 37792 98.2474 192.1331 0053435 78.3199 282.4002 14.81206257811870 APRIZESAT 6 1 37793U 11044F 26257.25099544 .00000458 00000+0 71855-4 0 9995 2 37793 98.2284 169.5390 0043420 159.2112 353.4234 14.77021385810293 PROBA-V 1 39159U 13021A 26256.67736688 .00000027 00000+0 29995-4 0 9992 2 39159 98.3701 230.9603 0003194 222.6889 137.4042 14.23612740693700 APRIZESAT 7 1 39416U 13066A 26256.76800150 .00000917 00000+0 95804-4 0 9993 2 39416 97.7796 208.7615 0034158 278.2222 81.5123 14.91746098694430 APRIZESAT 8 1 39425U 13066K 26257.25866767 .00000886 00000+0 10147-3 0 9995 2 39425 97.8293 203.5196 0045679 354.8058 5.2678 14.87793143692915 BUGSAT-1 (TITA) 1 40014U 14033E 26257.27375942 .00004258 00000+0 22151-3 0 9993 2 40014 98.0433 355.0839 0026353 234.8312 125.0451 15.16361345669333 SAUDISAT 4 1 40016U 14033G 26257.18428443 .00000557 00000+0 79863-4 0 9991 2 40016 97.7718 40.3153 0045579 142.3618 218.0799 14.79638903659234 APRIZESAT 9 1 40018U 14033J 26257.18699982 .00000418 00000+0 68978-4 0 9992 2 40018 97.9187 28.2757 0064618 274.2907 85.0919 14.74304711656677 APRIZESAT 10 1 40019U 14033K 26257.17194787 .00000266 00000+0 49689-4 0 9994 2 40019 97.9763 22.2016 0078410 350.6818 9.2929 14.70965298655335 TECHDEMOSAT-1 (TDS-1) 1 40076U 14037H 26257.25676077 .00005472 00000+0 30217-3 0 9997 2 40076 98.3875 258.4111 0005330 343.2341 16.8711 15.14407239661702 TECHNOSAT 1 42829U 17042E 26257.19807953 .00002284 00000+0 16292-3 0 9991 2 42829 97.4394 51.5594 0018199 146.3560 213.8826 15.05392742500097 FLYING LAPTOP 1 42831U 17042G 26257.29234725 .00001606 00000+0 12806-3 0 9990 2 42831 97.5006 49.6333 0016395 176.2208 183.9144 15.01587225499823 HAWK-A 1 43765U 18099H 26257.11729432 .00005249 00000+0 20606-3 0 9999 2 43765 97.3819 308.2103 0033105 334.5464 25.4142 15.25646544426655 HAWK-B 1 43794U 18099AN 26257.11652246 .00004832 00000+0 20144-3 0 9993 2 43794 97.3870 307.4327 0030989 354.0978 5.9890 15.23731361426571 HAWK-C 1 43799U 18099AT 26257.08258817 .00006551 00000+0 22796-3 0 9995 2 43799 97.3795 309.5397 0038321 332.5352 27.3862 15.29331614427499 SALSAT 1 46495U 20068K 26257.26571775 .00005740 00000+0 19484-3 0 9990 2 46495 97.8883 265.8489 0009220 1.1573 358.9687 15.30910957328981 HAWK-2C 1 47502U 21006CT 26256.66989666 .00004923 00000+0 14441-3 0 9998 2 47502 97.2196 299.2357 0005197 233.5857 126.4908 15.35616891313075 HAWK-2A 1 47505U 21006CW 26256.67029278 .00004911 00000+0 14388-3 0 9993 2 47505 97.2239 299.9679 0004672 238.7988 121.2798 15.35658856313076 HAWK-2B 1 47508U 21006CZ 26257.04946009 .00005754 00000+0 16731-3 0 9998 2 47508 97.2110 298.5344 0005187 233.9523 126.1241 15.35823236313135 HAWK-3B 1 48931U 21059BE 26257.04929092 .00056062 00000+0 33997-3 0 9991 2 48931 97.6548 102.6583 0003360 12.2746 347.8601 15.77385605291823 HAWK-3C 1 48948U 21059BX 26256.54144913 .00049415 00000+0 30070-3 0 9997 2 48948 97.6656 107.9255 0003727 13.8336 346.3031 15.77330962291742 HAWK-3A 1 48957U 21059CG 26257.04886092 .00055052 00000+0 33393-3 0 9999 2 48957 97.6601 105.6238 0003751 13.9443 346.1925 15.77381907291829 HAWK-5C 1 52754U 22057Y 26256.45722916 .00014289 00000+0 22068-3 0 9990 2 52754 97.6678 62.0645 0004837 105.1904 254.9884 15.54225704240048 HAWK-5B 1 52756U 22057AA 26256.90775647 .00014610 00000+0 22553-3 0 9998 2 52756 97.6694 60.9117 0005547 98.8444 261.3437 15.54230537240119 HAWK-5A 1 52757U 22057AB 26256.45688583 .00016580 00000+0 25573-3 0 9994 2 52757 97.6687 61.2557 0005451 103.3351 256.8510 15.54221468240043 HAWK-6B 1 55324U 23011A 26257.14987851 .00003781 00000+0 16269-3 0 9996 2 55324 40.4974 192.9057 0003470 290.1086 69.9350 15.23595377201419 HAWK-6C 1 55326U 23011C 26257.14924168 .00003883 00000+0 16683-3 0 9993 2 55326 40.4964 189.7379 0004365 282.1255 77.9066 15.23599909201423 HAWK-6A 1 55327U 23011D 26257.14926506 .00003947 00000+0 16946-3 0 9995 2 55327 40.4974 191.3703 0003954 278.4633 81.5728 15.23598441201422 HAWK-7A 1 56191U 23054P 26257.12075253 .00004876 00000+0 18020-3 0 9991 2 56191 97.2548 142.1783 0004746 83.9687 276.2093 15.28165513190609 HAWK-7B 1 56193U 23054R 26257.12068638 .00004906 00000+0 18130-3 0 9998 2 56193 97.2573 140.4729 0003809 91.5462 268.6214 15.28167519190603 HAWK-7C 1 56200U 23054Y 26257.12055583 .00004879 00000+0 18034-3 0 9994 2 56200 97.2550 141.2142 0004097 82.7839 277.3867 15.28167096190606